Terminal Aerodrome Forecast
Issued by NWS Portland, OR

Home | Current Version | Previous Version | Text Only | Print | Product List | Glossary On
Versions: 1 2 3 4 5 6 7 8 9 10 11 12 13 14 15 16 17 18 19 20 21 22 23 24 25 26 27 28 29 30 31 32 33 34 35 36 37 38 39 40 41 42 43 44 45 46 47 48 49 50
000
FTUS46 KPQR 301122
TAFPDX
TAF
KPDX 301122Z 3012/0112 16004KT P6SM VCSH BKN035 OVC050
     FM301400 20004KT P6SM SCT020 OVC030
     FM301900 27007KT P6SM SCT035 BKN060
     FM010100 31005KT P6SM BKN080=

USA.gov is the U.S. government's official web portal to all federal, state and local government web resources and services.